Stations météo

Publicité
Beziers-Vias, France (7638): Température de l'air & dewpoint: 21.06.2019 12:00:00 - 27.06.2019 12:00:00 (CEST)Beziers-Vias, France (7638): Vitesse du vent & gusts: 21.06.2019 12:00:00 - 27.06.2019 12:00:00 (CEST)Beziers-Vias, France (7638): Direction du vent: 21.06.2019 12:00:00 - 27.06.2019 12:00:00 (CEST)Beziers-Vias, France (7638): reduced air pressure: 21.06.2019 12:00:00 - 27.06.2019 12:00:00 (CEST)Beziers-Vias, France (7638): visibility: 21.06.2019 12:00:00 - 27.06.2019 12:00:00 (CEST)Beziers-Vias, France (7638): Quantités de précipitations: 21.06.2019 12:00:00 - 27.06.2019 12:00:00 (CEST)
Date & Time tt [°C] td [°C] ff [km/h] ff [knt] fx [km/h] fx [knt] dd ppp [hPa] vv [km] rr [mm]
27.06.2019 12:00:00 31,8 16,5 10 6 21 11 SSE 1020,8 17 0,0
27.06.2019 11:00:00 31,8 15,7 9 5 19 10 E 1020,8 22 0,0
27.06.2019 10:00:00 29,5 16,0 9 5 18 10 E 1021,0 25 0,0
27.06.2019 09:00:00 27,1 16,7 6 3 13 7 ENE 1021,0 30 0,0
27.06.2019 08:00:00 22,8 16,3 7 4 14 8 NNE 1020,9 27 0,0
27.06.2019 07:00:00 19,0 15,7 5 3 10 5 NNE 1020,7 21 0,0
27.06.2019 06:00:00 18,9 15,8 4 2 11 6 NNE 1020,7 20 0,0
27.06.2019 05:00:00 18,6 16,0 5 3 9 5 N 1020,9 18 0,0
27.06.2019 04:00:00 18,7 16,1 5 3 8 4 N 1020,9 16 0,0
27.06.2019 03:00:00 19,7 16,7 5 3 9 5 ENE 1021,1 16 0,0
27.06.2019 02:00:00 20,3 17,7 5 3 9 5 NNE 1020,9 14 0,0
27.06.2019 01:00:00 20,9 18,3 6 4 10 5 NNW 1021,1 12 0,0
27.06.2019 00:00:00 21,7 18,7 7 4 10 5 NNE 1021,3 14 0,0
26.06.2019 23:00:00 23,9 19,8 9 5 11 6 E 1021,4 16 0,0
26.06.2019 22:00:00 24,8 19,2 8 5 14 8 E 1020,8 21 0,0
26.06.2019 21:00:00 27,6 18,9 10 5 16 9 E 1020,4 26 0,0
26.06.2019 20:00:00 28,7 19,1 9 5 20 11 SE 1020,2 38 0,0
26.06.2019 19:00:00 30,0 18,1 12 7 22 12 SSE 1019,9 27 0,0
26.06.2019 18:00:00 30,5 18,2 13 7 24 13 SE 1020,2 24 0,0
26.06.2019 17:00:00 30,7 18,1 17 9 30 16 SSE 1020,8 22 0,0
26.06.2019 16:00:00 31,6 17,9 20 11 32 18 SE 1021,2 20 0,0
26.06.2019 15:00:00 32,2 16,9 19 10 34 18 SSE 1021,4 26 0,0
26.06.2019 14:00:00 32,5 15,5 19 10 35 19 ESE 1021,7 28 0,0
26.06.2019 13:00:00 32,9 16,3 18 10 34 18 ESE 1021,8 18 0,0
26.06.2019 12:00:00 31,9 14,1 16 9 26 14 E 1021,9 20 0,0
26.06.2019 11:00:00 30,9 14,5 16 9 27 15 E 1021,8 18 0,0
26.06.2019 10:00:00 28,5 16,4 11 6 20 11 ENE 1022,1 17 0,0
26.06.2019 09:00:00 25,6 16,4 10 5 17 9 NNE 1022,1 16 0,0
26.06.2019 08:00:00 22,3 16,8 13 7 18 10 NNE 1021,9 15 0,0
26.06.2019 07:00:00 19,2 16,8 6 3 13 7 NNE 1021,7 17 0,0
26.06.2019 06:00:00 18,1 16,8 8 4 12 7 N 1021,4 15 0,0
26.06.2019 05:00:00 18,5 16,8 6 3 15 8 ENE 1021,1 14 0,0
26.06.2019 04:00:00 18,9 17,2 10 5 13 7 NNE 1021,0 14 0,0
26.06.2019 03:00:00 19,6 18,4 5 3 8 4 E 1021,3 8 0,0
26.06.2019 02:00:00 20,2 19,0 4 2 13 7 NNE 1021,2 10 0,0
26.06.2019 01:00:00 20,5 19,2 7 4 9 5 NE 1021,3 11 0,0
26.06.2019 00:00:00 21,0 18,6 0 0 9 5 N 1021,0 16 0,0
25.06.2019 23:00:00 22,1 19,5 9 5 12 7 NE 1020,7 18 0,0
25.06.2019 22:00:00 23,3 19,2 9 5 14 8 ENE 1020,2 23 0,0
25.06.2019 21:00:00 25,7 19,3 11 6 16 9 E 1019,9 27 0,0
25.06.2019 20:00:00 28,2 18,3 8 4 18 10 SE 1019,5 35 0,0
25.06.2019 19:00:00 27,9 16,8 11 6 28 15 S 1019,4 25 0,0
25.06.2019 18:00:00 29,5 15,6 12 7 26 14 SSE 1019,2 22 0,0
25.06.2019 17:00:00 27,9 18,6 15 8 29 16 SE 1019,3 19 0,0
25.06.2019 16:00:00 27,7 19,5 18 10 29 16 SE 1019,1 19 0,0
25.06.2019 15:00:00 28,5 18,6 16 9 30 16 SE 1019,1 21 0,0
25.06.2019 14:00:00 28,0 17,8 18 10 34 19 SE 1019,5 22 0,0
25.06.2019 13:00:00 29,2 16,7 19 11 37 20 SE 1019,7 22 0,0
25.06.2019 12:00:00 29,3 16,1 21 12 36 19 ESE 1019,5 24 0,0
25.06.2019 11:00:00 28,7 15,9 19 11 33 18 E 1019,2 26 0,0
25.06.2019 10:00:00 27,4 17,8 17 9 31 17 E 1019,1 28 0,0
25.06.2019 09:00:00 25,3 18,0 19 10 27 15 ENE 1018,9 32 0,0
25.06.2019 08:00:00 22,0 16,9 15 8 22 12 NE 1018,7 35 0,0
25.06.2019 07:00:00 18,7 15,2 16 8 21 11 NNE 1018,3 22 0,0
25.06.2019 06:00:00 17,6 14,7 13 7 17 9 NNE 1018,4 24 0,0
25.06.2019 05:00:00 17,5 14,4 9 5 12 6 ENE 1018,0 26 0,0
25.06.2019 04:00:00 17,8 14,1 5 3 19 10 ENE 1018,2 27 0,0
25.06.2019 03:00:00 18,4 14,3 11 6 16 9 NNE 1018,1 28 0,0
25.06.2019 02:00:00 18,7 14,8 8 4 14 8 NNE 1018,1 29 0,0
25.06.2019 01:00:00 19,6 15,3 13 7 17 9 NE 1017,8 29 0,0
25.06.2019 00:00:00 19,9 15,9 5 3 13 7 NNE 1017,8 27 0,0
24.06.2019 23:00:00 21,2 16,6 10 5 14 8 NE 1017,7 30 0,0
24.06.2019 22:00:00 22,6 16,2 10 5 18 10 ENE 1017,1 31 0,0
24.06.2019 21:00:00 23,6 16,4 9 5 17 9 E 1016,9 34 0,0
24.06.2019 20:00:00 24,4 15,3 10 6 26 14 E 1016,7 32 0,0
24.06.2019 19:00:00 25,6 13,8 16 9 34 18 SE 1016,5 19 0,0
24.06.2019 18:00:00 26,0 16,0 16 9 29 16 SE 1016,7 13 0,0
24.06.2019 17:00:00 25,2 18,4 17 9 35 19 SSE 1016,8 13 0,0
24.06.2019 16:00:00 26,2 19,1 23 12 37 20 SE 1016,8 14 0,0
24.06.2019 15:00:00 27,6 16,6 21 11 37 20 SE 1017,2 14 0,0
24.06.2019 14:00:00 27,3 16,9 23 12 38 20 SE 1017,3 13 0,0
24.06.2019 13:00:00 27,4 15,1 21 11 34 18 ESE 1017,3 12 0,0
24.06.2019 12:00:00 26,4 16,0 23 12 37 20 E 1017,5 11 0,0
24.06.2019 11:00:00 25,2 16,1 22 12 34 18 E 1017,2 10 0,0
24.06.2019 10:00:00 24,5 15,7 25 13 34 19 E 1017,1 8 0,0
24.06.2019 09:00:00 22,8 18,1 22 12 31 17 E 1016,9 8 0,0
24.06.2019 08:00:00 20,1 17,9 11 6 20 11 NE 1016,6 8 0,0
24.06.2019 07:00:00 18,1 17,5 11 6 16 9 NE 1016,4 8 0,2
24.06.2019 06:00:00 17,9 17,4 10 6 20 11 NE 1016,3 6 0,0
24.06.2019 05:00:00 17,5 16,7 9 5 14 8 NE 1016,5 10 0,0
24.06.2019 04:00:00 17,8 16,8 9 5 13 7 ENE 1016,4 10 0,0
24.06.2019 03:00:00 18,6 17,6 10 5 19 10 NE 1016,5 10 0,0
24.06.2019 02:00:00 18,9 17,9 9 5 15 8 NE 1016,7 8 0,0
24.06.2019 01:00:00 18,8 17,8 11 6 14 8 NNE 1016,5 9 0,0
24.06.2019 00:00:00 19,0 17,7 6 3 9 5 NE 1016,7 14 0,0
23.06.2019 23:00:00 19,6 17,9 6 3 8 5 ENE 1016,5 16 0,0
23.06.2019 22:00:00 20,7 18,5 5 3 10 6 SE 1015,9 16 0,0
23.06.2019 21:00:00 21,3 18,5 7 4 18 10 ESE 1015,5 20 0,0
23.06.2019 20:00:00 21,8 19,0 12 6 25 13 SE 1015,2 23 0,0
23.06.2019 19:00:00 23,1 18,8 15 8 25 14 SSE 1014,7 20 0,0
23.06.2019 18:00:00 23,7 18,8 15 8 27 15 SSE 1014,5 22 0,0
23.06.2019 17:00:00 24,4 18,8 16 8 26 14 SSE 1014,7 25 0,0
23.06.2019 16:00:00 26,0 18,7 16 9 28 15 SE 1014,5 28 0,0
23.06.2019 15:00:00 26,7 18,3 17 9 29 15 SE 1014,6 31 0,0
23.06.2019 14:00:00 26,7 15,4 14 7 27 14 SE 1014,6 32 0,0
23.06.2019 13:00:00 27,0 14,7 16 9 32 17 E 1014,6 25 0,0
23.06.2019 12:00:00 25,1 15,1 16 9 26 14 E 1014,8 23 0,0
23.06.2019 11:00:00 25,1 15,4 17 9 25 13 ESE 1014,9 22 0,0
23.06.2019 10:00:00 24,2 15,4 14 7 25 13 E 1014,7 23 0,0
23.06.2019 09:00:00 22,3 15,9 6 3 13 7 ESE 1014,8 29 0,0
23.06.2019 08:00:00 20,0 15,4 5 3 11 6 NNE 1014,3 38 0,0
23.06.2019 07:00:00 16,5 14,1 2 1 6 3 N 1014,2 32 0,0
23.06.2019 06:00:00 16,6 13,9 4 2 16 9 N 1014,2 33 0,0
23.06.2019 05:00:00 16,2 13,9 11 6 16 8 NNE 1014,0 32 0,0
23.06.2019 04:00:00 15,4 12,7 5 3 13 7 WNW 1014,4 34 0,0
23.06.2019 03:00:00 16,1 13,6 6 3 12 6 N 1014,5 34 0,0
23.06.2019 02:00:00 16,2 13,7 4 2 6 3 NW 1014,6 27 0,0
23.06.2019 01:00:00 16,6 13,3 4 2 6 3 NW 1014,6 29 0,0
23.06.2019 00:00:00 18,0 13,3 4 2 13 7 W 1014,6 28 0,0
22.06.2019 23:00:00 19,6 12,8 3 1 11 6 WSW 1014,6 33 0,0
22.06.2019 22:00:00 21,6 13,8 8 5 21 12 SW 1014,1 32 0,0
22.06.2019 21:00:00 23,2 13,9 14 8 27 15 SSW 1013,8 39 0,0
22.06.2019 20:00:00 24,8 13,4 17 9 30 16 SSW 1013,5 37 0,0
22.06.2019 19:00:00 27,3 12,9 15 8 29 16 SSW 1013,2 30 0,0
22.06.2019 18:00:00 27,9 13,4 17 9 29 16 S 1013,3 29 0,0
22.06.2019 17:00:00 27,5 13,1 18 10 37 20 S 1013,7 27 0,0
22.06.2019 16:00:00 28,6 13,3 18 10 35 19 SW 1014,0 30 0,0
22.06.2019 15:00:00 28,0 12,8 18 10 34 19 SW 1014,6 32 0,0
22.06.2019 14:00:00 27,1 12,7 21 12 35 19 W 1015,1 37 0,0
22.06.2019 13:00:00 26,2 12,3 10 6 31 17 SW 1015,5 41 0,0
22.06.2019 12:00:00 25,1 12,7 16 8 30 16 WNW 1015,8 27 0,0
22.06.2019 11:00:00 23,5 13,7 18 10 31 17 W 1016,0 24 0,0
22.06.2019 10:00:00 22,1 13,4 17 9 29 16 WNW 1016,5 23 0,0
22.06.2019 09:00:00 20,3 14,2 16 9 26 14 W 1016,7 25 0,0
22.06.2019 08:00:00 18,0 14,3 19 10 30 16 W 1016,6 28 0,0
22.06.2019 07:00:00 16,1 14,1 13 7 22 12 W 1016,3 31 0,0
22.06.2019 06:00:00 15,5 13,7 12 6 22 12 W 1016,2 27 0,0
22.06.2019 05:00:00 16,1 14,1 15 8 26 14 W 1016,3 25 0,0
22.06.2019 04:00:00 16,6 14,1 16 8 28 15 W 1016,7 28 0,0
22.06.2019 03:00:00 16,8 14,3 19 10 29 16 W 1016,8 29 0,0
22.06.2019 02:00:00 17,2 14,3 20 11 31 17 W 1017,2 32 0,0
22.06.2019 01:00:00 17,6 14,5 19 11 29 16 W 1017,4 33 0,0
22.06.2019 00:00:00 17,5 14,6 19 11 31 17 W 1017,2 33 0,0
21.06.2019 23:00:00 17,7 14,6 22 12 42 23 W 1016,9 35 0,0
21.06.2019 22:00:00 18,2 14,5 25 13 44 24 W 1016,4 34 0,0
21.06.2019 21:00:00 19,0 14,7 28 15 49 26 W 1015,9 32 0,0
21.06.2019 20:00:00 20,9 15,9 24 13 54 29 W 1015,1 15 0,0
21.06.2019 19:00:00 21,1 15,6 29 16 53 28 W 1015,0 42 0,0
21.06.2019 18:00:00 22,0 17,1 21 12 45 25 W 1014,8 23 0,0
21.06.2019 17:00:00 22,9 17,8 23 12 43 23 W 1014,9 22 0,0
21.06.2019 16:00:00 24,9 18,6 16 9 31 17 WSW 1014,7 30 0,0
21.06.2019 15:00:00 22,6 19,6 10 5 30 16 NW 1014,6 25 0,2
21.06.2019 14:00:00 23,2 19,1 13 7 26 14 WSW 1015,8 13 0,2
21.06.2019 13:00:00 26,0 17,6 14 8 27 14 W 1014,8 29 0,0
21.06.2019 12:00:00 25,2 16,1 13 7 29 16 NW 1015,1 41 0,0

tt = Température de l'air
td = dewpoint
ff = Vitesse du vent
fx = gusts
dd = Direction du vent
ppp = reduced air pressure
vv = visibility
rr = Quantités de précipitations

stations d'obs. à proximité